Kaohsiung International Airport

Airport
ICAO code: 
RCKH
IATA Code: 
KHH
Summary
ICAO Region: 
APAC
Territory: 
Location: 
Kaohsiung City,
Serving: 
Kaohsiung City
Elevation: 
30 ft
Coordinates: 
Aerial View: 
22° 34' 30.26" N, 120° 21' 1.103" E
Metar
Observation
RCKH 272100Z 05004KT 9999 FEW014 SCT035 BKN120 26/24 Q1006 NOSIG RMK A2971
Station
Kaohsiung International Airport
Date/Time
2022-06-27 21:00:00
Wind direction
50°
Wind speed
04 kts
Lowest cloud amount
few clouds
Temperature
26°C
Dew point
24°C
Humidity
88%
QNH
1006 hPa
Weather condition
n/a

Description

Kaohsiung International Airport, also known as Kaohsiung Siaogang Airport for the Siaogang District where it is located, is a medium-sized commercial airport located in Kaohsiung City, Taiwan.

Climatology

Tropical Savanna climate (Köppen climate classification Aw) - monthly mean temperature above 18°C in every month of the year and a pronounced dry season.

Runways

Designator Length Width Surface Rops
9/27 3150 60 CON Yes/Yes
Airport map: 
Aerial View: 

SKYbrary Partners:

Safety knowledge contributed by: